Find Starlink 32618

NORAD ID: 62045 Int'l Des: 2024-216 Owner: SPXS Country: US Constellation: starlink operational
LEOCIRCULAR

Current View

Loading 3D Globe...

About Starlink 32618

Starlink 32618 (NORAD 62045) is a starlink constellation satellite (v2 mini) launched Nov 21, 2024 by SPXS of US. It operates in LEO, CIRCULAR orbit with a mass of 730.00 kg.

About Starlink 32618

Description loading...

Upcoming Passes

Passes for default location (London). Set your location on the main map for personalized predictions.

Altitude History

Loading altitude history...

Two-Line Element Set

1 62045U 24216P 26173.30627905 .00013979 00000-0 51654-3 0 9996
2 62045 43.0034 25.6484 0002062 265.3139 94.7477 15.27579316 89877
Epoch: Jun 22, 2026 • Age: 29 hours

Current Status

Altitude 484.7 km
Velocity 7.63 km/s
Sub-Earth Point 30.58°N, 65.55°E
Launch Date Nov 21, 2024
Age 1.5 years
Type internet

Technical Details

Classification Payload
Mass 730.00 kg
Dry Mass 700.00 kg
Total Mass 730.00 kg
Length 0.30 m
Diameter 4.10 m
Span 29.00 m
Shape Box + pan
Manufacturer SPXS
Bus Type Starlink V2M
Phase Status In Orbit
Owner/State SPXS/US

Most Searched